Lid_Strength_Index
1 1 2 2 2 2 2 2 2 2 2 2 2 2 1 1 1 2 3 2 2 -2 2 5 5 3 3 4 3 3 7 9 8 8 7 5 5 4 3 5 4 3 4 3 1
2 2 2 2 2 2 2 2 2 2 2 2 2 2 2 1 2 2 0 -2 -0 -0 4 5 6 5 6 5 5 6 8 8 6 5 6 5 5 5 5 5 5 4 3 2 3
2 2 2 2 2 2 2 2 2 2 2 2 2 2 2 2 3 3 -2 -1 -1 1 2 3 4 5 6 5 5 5 7 6 5 4 4 5 5 4 5 6 5 5 4 3 3
3 3 3 3 3 3 2 2 2 2 2 2 2 2 2 2 8 3 -2 -1 -0 1 1 4 5 7 7 7 5 7 5 5 5 4 5 5 4 5 5 5 3 3 3 3 3
3 3 3 3 3 3 3 2 3 2 3 2 2 2 2 4 4 1 -3 -1 1 1 2 3 5 6 7 6 6 7 6 5 4 4 4 4 5 5 5 3 3 3 3 3 3
3 3 3 3 3 3 3 3 2 3 3 3 2 2 3 6 0 1 1 1 1 2 3 3 4 4 6 6 6 6 6 6 5 5 5 5 5 5 4 3 3 3 3 3 3
3 3 3 3 3 3 3 3 3 3 2 2 2 2 4 5 1 0 1 2 1 3 4 3 3 4 5 6 4 5 7 6 6 6 6 5 7 7 4 3 4 4 3 3 3
3 3 3 3 3 3 2 2 2 2 2 2 1 2 5 1 1 2 1 2 2 2 3 2 3 4 5 5 6 7 7 9 7 6 6 6 9 6 4 4 4 4 4 3 3
4 4 4 4 3 3 3 3 2 1 1 1 2 3 5 2 4 2 2 3 3 3 3 3 4 6 6 8 8 8 10 9 8 5 6 6 9 6 4 4 5 4 4 3 3
4 4 4 4 4 3 3 3 1 2 2 2 1 4 3 4 4 3 2 2 4 4 5 5 6 8 7 8 12 10 10 9 9 7 6 7 8 6 5 5 5 4 4 4 3
4 4 4 4 4 3 3 2 3 4 2 4 4 4 4 2 2 3 2 3 4 5 8 6 8 9 8 7 7 8 8 9 8 7 7 8 7 7 5 5 5 5 4 4 4
4 4 4 4 4 4 4 3 4 4 7 3 3 4 3 3 5 4 2 5 6 8 6 7 9 7 6 7 7 8 9 9 8 6 7 7 8 6 6 5 5 5 4 4 4
5 5 4 4 4 4 3 3 2 2 7 5 4 6 5 4 6 5 4 5 6 7 7 8 7 5 6 7 8 8 10 9 9 7 7 8 9 8 6 5 5 4 4 4 4
5 5 4 4 6 2 3 2 2 2 9 7 7 6 5 5 7 3 3 5 6 8 7 7 6 7 7 8 7 10 7 7 8 9 12 8 13 9 7 7 6 5 4 4 4
6 6 5 5 4 3 3 2 2 3 16 7 6 3 5 7 6 6 3 5 7 7 7 8 7 7 8 8 7 8 7 8 8 9 10 10 12 10 7 8 7 6 5 4 3
6 6 6 4 3 2 2 2 3 10 16 8 6 7 7 7 7 6 6 5 5 7 7 7 5 6 7 6 6 6 7 8 8 9 13 11 11 11 9 8 7 5 5 4 4
7 7 7 4 5 2 3 4 10 14 7 8 9 7 8 8 7 6 7 8 9 10 10 8 7 6 6 8 6 7 9 13 14 14 15 10 11 11 8 7 7 6 5 4 3
7 8 5 4 3 2 4 8 14 9 8 6 8 8 9 8 8 7 8 8 7 7 9 11 12 8 6 8 9 9 9 14 19 18 15 11 14 11 6 6 5 5 4 4 4
8 4 5 3 1 3 7 12 11 9 8 9 9 10 10 8 8 8 9 9 8 8 10 11 11 7 6 6 7 9 11 8 13 13 16 13 10 7 6 6 6 5 5 4 4
8 4 4 1 2 4 8 11 9 7 8 8 11 10 12 10 10 9 9 8 8 6 6 9 12 8 7 6 6 8 7 13 12 19 20 14 13 12 9 8 7 6 5 4 4
6 6 3 2 3 7 11 9 8 7 8 10 11 11 10 11 11 11 11 9 8 8 6 7 9 10 7 9 9 9 12 12 12 12 17 18 14 8 8 8 7 6 5 4 4
7 9 3 3 9 8 9 8 9 9 8 9 9 10 10 10 11 11 11 9 7 7 9 7 9 13 11 7 6 7 10 11 16 18 15 15 15 7 7 7 7 7 5 4 4
10 8 3 5 12 9 8 9 8 9 9 9 10 9 8 10 12 10 10 8 7 7 7 7 10 14 12 9 8 12 10 10 11 12 17 19 15 6 7 7 7 7 6 5 4
9 11 7 7 7 9 10 10 10 7 8 9 9 9 9 10 9 11 10 8 6 6 5 6 9 12 16 13 9 11 11 10 12 16 15 14 12 9 8 8 8 7 5 5 5
8 9 8 11 10 10 10 10 11 10 8 8 9 9 10 11 11 11 10 8 7 5 6 7 12 10 9 9 9 9 10 9 12 12 14 12 11 9 7 7 7 6 6 5 6
9 11 9 11 10 10 10 10 11 10 10 11 11 10 10 11 11 12 10 9 9 7 7 6 11 9 10 9 9 10 9 9 9 9 9 9 10 6 6 5 5 6 6 6 5
7 7 10 11 10 11 10 11 10 9 9 9 9 10 11 10 9 8 8 8 8 8 8 8 9 11 14 10 10 13 10 9 9 9 9 11 8 6 7 7 7 6 5 6 6